weather.gov     
National Weather Service

Regional Weather Roundup
NWS Homepage
This page is being discontinued on March 12, 2014.
The same data is available at this site. Please update your bookmarks.
Thank you, and we apologize for the inconvenience.
Please send an email to SR-SRH.Webmaster@noaa.gov with any concerns.


Current Version
Previous Version:    01  02  03  04  05  06  07  08  09  10  11  12  13  14  15  16  17  18  19  20  21  22  23  24  25  26  27  28  29  30  
   31  32  33  34  35  36  37  38  39  40  41  42  43  44  45  46  47  48  49  50  51  52  53  54  55  56  57  58  59  60  
[Printable]
927
ASUS44 KOHX 221715
RWROHX
MIDDLE TENNESSEE HOURLY WEATHER ROUNDUP
NATIONAL WEATHER SERVICE NASHVILLE TN
1100 AM CST MON DEC 22 2014

NOTE: "FAIR" INDICATES FEW OR NO CLOUDS BELOW 12,000 FEET WITH
NO SIGNIFICANT WEATHER AND/OR OBSTRUCTIONS TO VISIBILITY.

* THESE REPORTS ARE NOT UNDER NWS QUALITY CONTROL AND MAY NOT
  REPORT WEATHER SUCH AS PRECIPITATION AND FOG.


TNZ005>011-023>034-057-059-062>066-078-080-221800
...NORTHERN MIDDLE TENNESSEE...

CITY           SKY/WX    TMP DP  RH WIND       PRES   REMARKS
CLARKSVILLE    CLOUDY    51  46  83 SE12      29.84F
CROSSVILLE     CLOUDY    51  41  68 SE6       29.91F
GALLATIN       CLOUDY    53  47  80 SE10      29.89F
DICKSON        CLOUDY    50  46  87 S8        29.84F
LEBANON        CLOUDY    53  45  74 SE6       29.88F
LIVINGSTON     PTSUNNY   51  43  74 S9        29.90F
NASHVILLE      CLOUDY    53  45  74 S9        29.88F
WEST NASHVILLE CLOUDY    50  50 100 S10       29.88F
PORTLAND       CLOUDY    52  45  76 S10       29.86F
SMYRNA         CLOUDY    53  46  77 S9G17     29.88F
SPARTA         MOSUNNY   52  45  76 S9        29.89F
$$
TNZ056-058-060-061-075>077-079-093>097-221800
...SOUTHERN MIDDLE TENNESSEE...

CITY           SKY/WX    TMP DP  RH WIND       PRES   REMARKS
COLUMBIA       CLOUDY   N/A N/A N/A SE7       29.84F
LEWISBURG      CLOUDY    52  46  79 S8        29.87F
MCMINNVILLE    PTSUNNY   54  46  76 CALM      29.89F
MURFREESBORO   CLOUDY    54  45  71 SE6       29.88F
SHELBYVILLE    CLOUDY    54  46  76 SE10      29.88F
TULLAHOMA      CLOUDY    52  45  76 S8        29.89F
WINCHESTER     CLOUDY    48  45  87 SE12      29.90F
$$


...KEY TO REMARKS...
VSB - VISIBILITY IN MILES
WCI - WIND CHILL INDEX
HX  - HEAT INDEX





U.S. Dept. of Commerce
NOAA National Weather Service
1325 East West Highway
Silver Spring, MD 20910
E-mail: w-nws.webmaster@noaa.gov
Page last modified: May 16, 2007
NATIONAL WEATHER SERVICE: for Safety, for Work, for Fun - FOR LIFE